Regional Weather Roundup
Issued by NWS Portland, ME

Current Version | Previous Version | Text Only | Print | Product List | Glossary Off
Versions: 1 2 3 4 5 6 7 8 9 10 11 12 13 14 15 16 17 18 19 20 21 22 23 24 25 26 27 28 29 30 31 32 33 34 35 36 37 38 39 40 41 42 43 44 45 46 47 48 49 50
310 ASUS41 KGYX 211705 RWRGYX WEATHER ROUNDUP FOR MAINE AND NEW HAMPSHIRE NATIONAL WEATHER SERVICE GRAY ME 100 PM EDT SUN OCT 21 2018 MEZ002-005-006-010-012-015-018-020-021-024-026-027-029-211800- MAINE CITY SKY/WX TMP DP RH WIND PRES REMARKS PORTLAND CLOUDY 45 26 47 NW20G30 29.76S SANFORD CLOUDY 45 26 47 NW15G28 29.77R BAR HARBOR FAIR 43 26 51 VRB6 29.69F WISCASSET FAIR 45 25 45 NW9G25 29.75S ROCKLAND FAIR 44 27 51 NW14G20 29.70F FRYEBURG FAIR 43 22 43 W10G24 29.79R LEWISTONAUBURN CLOUDY 41 24 51 NW21G26 29.76F AUGUSTA PTSUNNY 43 23 45 NW12G25 29.75S WATERVILLE CLOUDY 41 23 48 N13G20 29.72S BANGOR CLOUDY 43 24 47 NW13G24 29.72S GREENVILLE N/A 34 23 64 NW14G25 29.67R MILLINOCKET PTSUNNY 41 22 46 W10G21 29.70F HOULTON CLOUDY 40 25 55 NW13G21 29.65R PRESQUE ISLE CLOUDY 39 26 59 W12 29.66R FRENCHVILLE CLOUDY 37 21 52 NW16G25 29.63R CARIBOU CLOUDY 40 25 55 NW10 29.63S $$ NHZ002-005-008-009-011-012-014-211800- NEW HAMPSHIRE CITY SKY/WX TMP DP RH WIND PRES REMARKS PORTSMOUTH PTSUNNY 47 23 38 NW24 29.75S ROCHESTER FAIR 44 26 49 NW26G35 29.78R NASHUA PTSUNNY 42 27 55 NW18G30 29.83S MANCHESTER CLOUDY 42 23 46 NW22G30 29.81S CONCORD CLOUDY 40 23 50 NW18G29 29.83S LACONIA CLOUDY 38 21 50 NW21G28 29.82S PLYMOUTH CLOUDY 37 24 59 NW10 29.84S BERLIN FLURRIES 34 24 67 VRB7G16 29.80S WHITEFIELD CLOUDY 35 23 61 NW12G18 29.83S JAFFREY CLOUDY 39 24 55 NW12G25 29.82S KEENE CLOUDY 40 24 53 NW12G23 29.86S LEBANON CLOUDY 39 21 48 NW9 29.88S MT WASHINGTON SNOWSHWR 12 12 100 NW68G76 N/A VSB 1/16WCI -17 $$ VTZ005-007-008-211800- VERMONT CITY SKY/WX TMP DP RH WIND PRES REMARKS ST JOHNSBURY N/A 35 23 61 MISG 29.85S MONTPELIER CLOUDY 32 23 69 NW16G25 29.91S BURLINGTON FLURRIES 38 20 48 NW17 29.94S $$ MAZ007-012-024-CTZ003-RIZ002-NYZ038-NYZ072-211800- SOUTHERN NEW ENGLAND AND NY CITY SKY/WX TMP DP RH WIND PRES REMARKS BOSTON FAIR 49 26 41 NW22G30 29.79R WORCESTER CLOUDY 39 25 57 NW20G35 29.80R NANTUCKET RAIN 45 40 82 NW21G32 29.72R PROVIDENCE FAIR 48 29 47 NW22G35 29.79F HARTFORD CLOUDY 44 25 47 NW16G24 29.88S ALBANY PTSUNNY 43 21 41 NW17G24 29.97S NEW YORK CITY PTSUNNY 49 29 46 NW29G38 29.94F $$ ANZ081-ANZ082-ANZ150-NHZ014-MEZ023>029-211800- COASTAL MARINE OBSERVATIONS STATION/POSITION TIME TEMP WIND PRES WAVE AIR SEA DIR/SP/G HT/PER (UTC) (F) (DEG/KT/KT) (MB) (FT/S) MOUNT DESERT ROC 1700 42 320/ 25/ 29 1004.7F MATINICUS ROCK 1600 43 330/ 27/ 29 1005.4F ISLE OF SHOALS 1600 44 320/ 25/ 28 1007.1R JEFFREYS LEDGE 1606 55 N/A 5/10 $$ .............KEY.............. WCI - WIND CHILL TC - TEMPERATURE IN CELSIUS VSB - VISIBILITY IN MILES HX - HEAT INDEX FAIR- INDICATES FEW OR NO CLOUDS BELOW 12,000 FT, WITH NO SIGNIFICANT WEATHER AND/OR OBSTRUCTIONS TO VISIBILITY.

USA.gov is the U.S. government's official web portal to all federal, state and local government web resources and services.